TimeCDT,TemperatureF,Dew PointF,Humidity,Sea Level PressureIn,VisibilityMPH,Wind Direction,Wind SpeedMPH,Gust SpeedMPH,PrecipitationIn,Events,Conditions,WindDirDegrees,DateUTC
12:53 AM,75.9,72.0,87,29.91,10.0,Calm,Calm,-,N/A,,Haze,0,2013-08-08 05:53:00
1:53 AM,78.1,73.0,84,29.90,9.0,SSE,3.5,-,N/A,,Haze,160,2013-08-08 06:53:00
2:53 AM,77.0,73.0,88,29.90,9.0,South,4.6,-,N/A,,Haze,180,2013-08-08 07:53:00
3:53 AM,77.0,73.0,88,29.89,8.0,SSE,3.5,-,N/A,,Haze,160,2013-08-08 08:53:00
4:53 AM,75.9,73.0,91,29.90,8.0,South,5.8,-,N/A,,Haze,170,2013-08-08 09:53:00
5:53 AM,75.9,73.0,91,29.91,7.0,South,4.6,-,N/A,,Haze,180,2013-08-08 10:53:00
6:53 AM,75.0,73.0,94,29.94,5.0,SSE,3.5,-,N/A,,Clear,160,2013-08-08 11:53:00
7:53 AM,78.1,75.0,90,29.94,6.0,Calm,Calm,-,N/A,,Clear,0,2013-08-08 12:53:00
8:53 AM,82.0,75.0,79,29.94,6.0,SSW,5.8,-,N/A,,Haze,200,2013-08-08 13:53:00
9:53 AM,86.0,73.9,67,29.94,8.0,Variable,5.8,-,N/A,,Clear,0,2013-08-08 14:53:00
10:53 AM,89.1,73.0,59,29.95,6.0,Variable,3.5,-,N/A,,Haze,0,2013-08-08 15:53:00
11:53 AM,91.9,70.0,48,29.93,9.0,Variable,4.6,-,N/A,,Haze,0,2013-08-08 16:53:00
12:53 PM,93.9,66.0,40,29.92,6.0,Variable,3.5,-,N/A,,Haze,0,2013-08-08 17:53:00
1:53 PM,96.1,66.9,38,29.90,9.0,Variable,4.6,-,N/A,,Haze,0,2013-08-08 18:53:00
2:53 PM,97.0,64.9,35,29.90,9.0,SSW,8.1,19.6,N/A,,Haze,200,2013-08-08 19:53:00
3:53 PM,98.1,63.0,31,29.88,9.0,SSW,5.8,-,N/A,,Haze,210,2013-08-08 20:53:00
4:53 PM,97.0,64.9,35,29.87,9.0,West,3.5,-,N/A,,Haze,260,2013-08-08 21:53:00
5:53 PM,96.1,66.0,37,29.86,9.0,WSW,8.1,-,N/A,,Haze,240,2013-08-08 22:53:00
6:53 PM,93.0,64.9,39,29.86,9.0,SW,8.1,-,N/A,,Clear,220,2013-08-08 23:53:00
7:53 PM,89.1,63.0,42,29.86,9.0,SSW,4.6,-,N/A,,Clear,200,2013-08-09 00:53:00
8:53 PM,81.0,70.0,69,29.86,8.0,Calm,Calm,-,N/A,,Clear,0,2013-08-09 01:53:00
9:53 PM,79.0,68.0,69,29.89,10.0,Calm,Calm,-,N/A,,Clear,0,2013-08-09 02:53:00
10:53 PM,75.9,66.9,74,29.92,10.0,Calm,Calm,-,N/A,,Clear,0,2013-08-09 03:53:00
11:53 PM,75.0,70.0,84,29.92,10.0,Calm,Calm,-,N/A,,Clear,0,2013-08-09 04:53:00